Home   Weather   Bahawalpur   Past weeks

Flag for Pakistan Past Weather in Bahawalpur, Pakistan — Yesterday and Last 2 Weeks

Now
84 °F

Passing clouds.


Feels Like: 83 °F
Forecast: 82 / 106 °F
Wind: 9 mph from North

Location: Multan Airport

Current Time: Apr 28, 2017 at 3:45:57 am

Latest Report: Apr 28, 2017 at 3:00 am


Visibility: 2 mi

Pressure: 29.71 "Hg

Humidity: 35%

Dew Point: 54 °F

Location of BahawalpurLocation

Past Weather in Bahawalpur — Graph

°F

Bahawalpur Temperature Yesterday

Maximum temperature yesterday: 100 °F (at 3:55 pm)
Minimum temperature yesterday: 75 °F (at 6:55 am)
Average temperature yesterday: 90 °F

High & Low Weather Summary for the Past Weeks

 TemperatureHumidityPressure
High113 °F (Apr 16, 3:55 pm)100% (Apr 22, 6:56 pm)29.80 "Hg (Apr 22, 6:56 pm)
Low68 °F (Apr 22, 6:56 pm)8% (Apr 17, 4:55 pm)29.42 "Hg (Apr 20, 4:55 pm)
Average92 °F32%29.63 "Hg
* Reported Apr 13 2:52 am — Apr 28 2:00 am, Bahawalpur, Weather by CustomWeather, © 2017

Note: Actual official high and low records may vary slightly from our data, if they occured in-between our weather recording intervals... More about our weather records

Advertising

Bahawalpur Weather History for the Previous 24 Hours

Scroll right to see more
 ConditionsComfort  
Time TempWeatherWind HumidityBarometerVisibility
2:00 am
Fri, Apr 28
86 °FPassing clouds.9 mph33%29.71 "Hg2 mi
1:00 am90 °FPartly cloudy.5 mph29%29.71 "Hg2 mi
11:49 pm
Thu, Apr 27
91 °FThundershowers. Mostly cloudy.9 mph30%29.71 "Hg2 mi
10:53 pm93 °FThundershowers. Overcast.18 mph32%29.71 "Hg2 mi
9:57 pm97 °FThundershowers. Overcast.21 mph37%29.74 "Hg2 mi
9:10 pm97 °FDuststorm.35 mph39%29.71 "Hg1 mi
8:51 pm97 °FThundershowers. Overcast.16 mph39%29.71 "Hg2 mi
8:00 pm97 °FThundershowers. Mostly cloudy.18 mph34%29.71 "Hg2 mi
7:29 pm95 °FDuststorm.29 mph28%29.68 "Hg80 mi
6:55 pm95 °FMostly cloudy.7 mph28%29.65 "Hg2 mi
5:55 pm99 °FScattered clouds.5 mph24%29.65 "Hg2 mi
5:00 pm100 °FHaze.5 mph18%29.65 "Hg3 mi
3:55 pm100 °FHaze.5 mph21%29.65 "Hg3 mi
3:00 pm99 °FHaze.5 mph25%29.68 "Hg3 mi
2:00 pm97 °FHaze.7 mph25%29.71 "Hg3 mi
12:46 pm95 °FHaze.9 mph25%29.74 "Hg3 mi
11:58 am91 °FHaze.7 mph30%29.77 "Hg3 mi
10:46 am88 °FHaze.5 mph33%29.77 "Hg3 mi
9:56 am86 °FHaze.5 mph38%29.77 "Hg3 mi
8:57 am82 °FHaze.7 mph40%29.77 "Hg3 mi
7:55 am77 °FClear.7 mph51%29.77 "Hg2 mi
6:55 am75 °FClear.5 mph50%29.74 "Hg2 mi
5:55 am77 °FHaze.7 mph47%29.71 "Hg2 mi
4:55 am81 °FHaze.7 mph37%29.56 "Hg2 mi
4:00 am82 °FHaze.9 mph32%29.68 "Hg2 mi
Weather by CustomWeather, © 2017

See weather overviewHow to use our weather pages